Year,Month,Day,Hour,Minute,Value (Times are PST for windspeed in km/hr)
2010,04,28,00,00,3.50
2010,04,28,00,01,7.40
2010,04,28,00,02,9.50
2010,04,28,00,03,6.00
2010,04,28,00,04,10.10
2010,04,28,00,05,14.60
2010,04,28,00,06,12.90
2010,04,28,00,07,12.10
2010,04,28,00,08,7.60
2010,04,28,00,09,9.30
2010,04,28,00,10,7.60
2010,04,28,00,11,9.80
2010,04,28,00,12,12.10
2010,04,28,00,13,8.80
2010,04,28,00,14,13.30
2010,04,28,00,15,11.30
2010,04,28,00,16,5.50
2010,04,28,00,17,10.70
2010,04,28,00,18,10.70
2010,04,28,00,19,7.30
2010,04,28,00,20,8.00
2010,04,28,00,21,7.40
2010,04,28,00,22,4.00
2010,04,28,00,23,3.70
2010,04,28,00,24,3.30
2010,04,28,00,25,6.50
2010,04,28,00,26,4.90
2010,04,28,00,27,3.70
2010,04,28,00,28,3.70
2010,04,28,00,29,1.30
2010,04,28,00,30,3.60
2010,04,28,00,31,3.60
2010,04,28,00,32,3.50
2010,04,28,00,33,3.40
2010,04,28,00,34,1.40
2010,04,28,00,35,0.10
2010,04,28,00,36,1.60
2010,04,28,00,37,6.40
2010,04,28,00,38,6.20
2010,04,28,00,39,4.20
2010,04,28,00,40,2.70
2010,04,28,00,41,2.70
2010,04,28,00,42,3.10
2010,04,28,00,43,5.60
2010,04,28,00,44,3.80
2010,04,28,00,45,0.30
2010,04,28,00,46,4.80
2010,04,28,00,47,8.80
2010,04,28,00,48,7.00
2010,04,28,00,49,9.40
2010,04,28,00,50,12.10
2010,04,28,00,51,6.40
2010,04,28,00,52,4.20
2010,04,28,00,53,10.00
2010,04,28,00,54,9.50
2010,04,28,00,55,5.00
2010,04,28,00,56,6.20
2010,04,28,00,57,5.20
2010,04,28,00,58,3.30
2010,04,28,00,59,6.60
2010,04,28,01,00,4.70
2010,04,28,01,01,7.20
2010,04,28,01,02,3.90
2010,04,28,01,03,6.30
2010,04,28,01,04,9.50
2010,04,28,01,05,3.80
2010,04,28,01,06,3.60
2010,04,28,01,07,3.90
2010,04,28,01,08,3.60
2010,04,28,01,09,4.10
2010,04,28,01,10,4.80
2010,04,28,01,11,6.30
2010,04,28,01,12,4.20
2010,04,28,01,13,3.90
2010,04,28,01,14,3.70
2010,04,28,01,15,3.30
2010,04,28,01,16,8.90
2010,04,28,01,17,6.50
2010,04,28,01,18,6.30
2010,04,28,01,19,3.10
2010,04,28,01,20,3.50
2010,04,28,01,21,10.60
2010,04,28,01,22,6.40
2010,04,28,01,23,7.90
2010,04,28,01,24,10.30
2010,04,28,01,25,5.00
2010,04,28,01,26,6.40
2010,04,28,01,27,7.60
2010,04,28,01,28,8.00
2010,04,28,01,29,6.90
2010,04,28,01,30,7.80
2010,04,28,01,31,9.50
2010,04,28,01,32,8.30
2010,04,28,01,33,6.20
2010,04,28,01,34,7.10
2010,04,28,01,35,5.60
2010,04,28,01,36,5.20
2010,04,28,01,37,7.70
2010,04,28,01,38,5.70
2010,04,28,01,39,7.00
2010,04,28,01,40,6.40
2010,04,28,01,41,4.20
2010,04,28,01,42,5.80
2010,04,28,01,43,7.90
2010,04,28,01,44,7.40
2010,04,28,01,45,6.20
2010,04,28,01,46,3.90
2010,04,28,01,47,8.10
2010,04,28,01,48,9.40
2010,04,28,01,49,7.20
2010,04,28,01,50,6.00
2010,04,28,01,51,4.40
2010,04,28,01,52,5.70
2010,04,28,01,53,4.70
2010,04,28,01,54,4.20
2010,04,28,01,55,5.00
2010,04,28,01,56,5.50
2010,04,28,01,57,2.50
2010,04,28,01,58,2.90
2010,04,28,01,59,5.80
2010,04,28,02,00,10.90
2010,04,28,02,01,9.70
2010,04,28,02,02,3.90
2010,04,28,02,03,6.40
2010,04,28,02,04,7.60
2010,04,28,02,05,7.40
2010,04,28,02,06,8.60
2010,04,28,02,07,6.40
2010,04,28,02,08,6.90
2010,04,28,02,09,10.10
2010,04,28,02,10,6.90
2010,04,28,02,11,8.00
2010,04,28,02,12,7.10
2010,04,28,02,13,5.60
2010,04,28,02,14,9.30
2010,04,28,02,15,8.90
2010,04,28,02,16,10.50
2010,04,28,02,17,10.10
2010,04,28,02,18,8.50
2010,04,28,02,19,5.20
2010,04,28,02,20,8.30
2010,04,28,02,21,10.30
2010,04,28,02,22,9.40
2010,04,28,02,23,11.30
2010,04,28,02,24,10.40
2010,04,28,02,25,8.80
2010,04,28,02,26,11.30
2010,04,28,02,27,7.10
2010,04,28,02,28,8.20
2010,04,28,02,29,3.80
2010,04,28,02,30,6.20
2010,04,28,02,31,5.10
2010,04,28,02,32,4.70
2010,04,28,02,33,5.70
2010,04,28,02,34,8.30
2010,04,28,02,35,4.20
2010,04,28,02,36,5.30
2010,04,28,02,37,3.10
2010,04,28,02,38,6.60
2010,04,28,02,39,3.40
2010,04,28,02,40,6.10
2010,04,28,02,41,1.80
2010,04,28,02,42,5.50
2010,04,28,02,43,5.60
2010,04,28,02,44,4.00
2010,04,28,02,45,8.10
2010,04,28,02,46,6.90
2010,04,28,02,47,5.00
2010,04,28,02,48,5.70
2010,04,28,02,49,7.10
2010,04,28,02,50,6.70
2010,04,28,02,51,2.60
2010,04,28,02,52,5.70
2010,04,28,02,53,1.30
2010,04,28,02,54,0.20
2010,04,28,02,55,0.00
2010,04,28,02,56,0.60
2010,04,28,02,57,2.00
2010,04,28,02,58,0.00
2010,04,28,02,59,0.00
2010,04,28,03,00,0.30
2010,04,28,03,01,0.00
2010,04,28,03,02,1.00
2010,04,28,03,03,0.00
2010,04,28,03,04,0.00
2010,04,28,03,05,0.00
2010,04,28,03,06,0.00
2010,04,28,03,07,0.00
2010,04,28,03,08,0.00
2010,04,28,03,09,0.00
2010,04,28,03,10,0.00
2010,04,28,03,11,0.00
2010,04,28,03,12,0.00
2010,04,28,03,13,0.00
2010,04,28,03,14,0.00
2010,04,28,03,15,0.00
2010,04,28,03,16,0.00
2010,04,28,03,17,0.00
2010,04,28,03,18,0.00
2010,04,28,03,19,0.00
2010,04,28,03,20,0.00
2010,04,28,03,21,0.00
2010,04,28,03,22,0.00
2010,04,28,03,23,0.00
2010,04,28,03,24,0.00
2010,04,28,03,25,0.00
2010,04,28,03,26,1.60
2010,04,28,03,27,2.90
2010,04,28,03,28,1.80
2010,04,28,03,29,2.40
2010,04,28,03,30,3.90
2010,04,28,03,31,4.00
2010,04,28,03,32,3.20
2010,04,28,03,33,3.20
2010,04,28,03,34,4.50
2010,04,28,03,35,3.80
2010,04,28,03,36,6.20
2010,04,28,03,37,7.60
2010,04,28,03,38,6.00
2010,04,28,03,39,4.80
2010,04,28,03,40,4.80
2010,04,28,03,41,7.80
2010,04,28,03,42,8.60
2010,04,28,03,43,7.60
2010,04,28,03,44,6.70
2010,04,28,03,45,6.40
2010,04,28,03,46,7.10
2010,04,28,03,47,5.40
2010,04,28,03,48,7.80
2010,04,28,03,49,7.50
2010,04,28,03,50,9.00
2010,04,28,03,51,7.30
2010,04,28,03,52,10.00
2010,04,28,03,53,9.30
2010,04,28,03,54,8.00
2010,04,28,03,55,9.50
2010,04,28,03,56,8.00
2010,04,28,03,57,6.60
2010,04,28,03,58,6.50
2010,04,28,03,59,7.00
2010,04,28,04,00,7.90
2010,04,28,04,01,7.60
2010,04,28,04,02,12.60
2010,04,28,04,03,7.70
2010,04,28,04,04,7.10
2010,04,28,04,05,8.20
2010,04,28,04,06,7.20
2010,04,28,04,07,4.20
2010,04,28,04,08,6.90
2010,04,28,04,09,4.60
2010,04,28,04,10,3.10
2010,04,28,04,11,4.50
2010,04,28,04,12,4.60
2010,04,28,04,13,5.00
2010,04,28,04,14,5.30
2010,04,28,04,15,4.90
2010,04,28,04,16,3.70
2010,04,28,04,17,2.10
2010,04,28,04,18,2.50
2010,04,28,04,19,3.60
2010,04,28,04,20,2.50
2010,04,28,04,21,0.10
2010,04,28,04,22,0.50
2010,04,28,04,23,0.20
2010,04,28,04,24,3.20
2010,04,28,04,25,0.00
2010,04,28,04,26,1.40
2010,04,28,04,27,0.60
2010,04,28,04,28,0.00
2010,04,28,04,29,0.90
2010,04,28,04,30,0.10
2010,04,28,04,31,0.00
2010,04,28,04,32,0.10
2010,04,28,04,33,0.00
2010,04,28,04,34,0.00
2010,04,28,04,35,1.00
2010,04,28,04,36,0.10
2010,04,28,04,37,0.10
2010,04,28,04,38,0.20
2010,04,28,04,39,0.20
2010,04,28,04,40,2.90
2010,04,28,04,41,0.10
2010,04,28,04,42,0.10
2010,04,28,04,43,0.20
2010,04,28,04,44,0.10
2010,04,28,04,45,0.50
2010,04,28,04,46,0.10
2010,04,28,04,47,0.10
2010,04,28,04,48,0.30
2010,04,28,04,49,0.40
2010,04,28,04,50,1.50
2010,04,28,04,51,3.30
2010,04,28,04,52,2.40
2010,04,28,04,53,3.50
2010,04,28,04,54,0.50
2010,04,28,04,55,0.10
2010,04,28,04,56,1.00
2010,04,28,04,57,1.50
2010,04,28,04,58,0.30
2010,04,28,04,59,1.50
2010,04,28,05,00,1.70
2010,04,28,05,01,2.60
2010,04,28,05,02,2.50
2010,04,28,05,03,5.90
2010,04,28,05,04,0.70
2010,04,28,05,05,3.70
2010,04,28,05,06,2.10
2010,04,28,05,07,1.20
2010,04,28,05,08,4.90
2010,04,28,05,09,2.00
2010,04,28,05,10,3.00
2010,04,28,05,11,4.90
2010,04,28,05,12,5.30
2010,04,28,05,13,3.30
2010,04,28,05,14,3.10
2010,04,28,05,15,2.60
2010,04,28,05,16,0.10
2010,04,28,05,17,3.00
2010,04,28,05,18,2.90
2010,04,28,05,19,1.40
2010,04,28,05,20,0.70
2010,04,28,05,21,3.20
2010,04,28,05,22,1.40
2010,04,28,05,23,1.50
2010,04,28,05,24,0.30
2010,04,28,05,25,0.40
2010,04,28,05,26,0.90
2010,04,28,05,27,1.80
2010,04,28,05,28,4.50
2010,04,28,05,29,2.40
2010,04,28,05,30,3.20
2010,04,28,05,31,3.10
2010,04,28,05,32,6.10
2010,04,28,05,33,3.50
2010,04,28,05,34,3.40
2010,04,28,05,35,2.50
2010,04,28,05,36,2.30
2010,04,28,05,37,5.20
2010,04,28,05,38,5.20
2010,04,28,05,39,6.40
2010,04,28,05,40,5.60
2010,04,28,05,41,6.00
2010,04,28,05,42,3.30
2010,04,28,05,43,1.30
2010,04,28,05,44,2.50
2010,04,28,05,45,0.70
2010,04,28,05,46,0.00
2010,04,28,05,47,1.00
2010,04,28,05,48,0.60
2010,04,28,05,49,3.10
2010,04,28,05,50,1.20
2010,04,28,05,51,3.90
2010,04,28,05,52,2.10
2010,04,28,05,53,0.10
2010,04,28,05,54,2.30
2010,04,28,05,55,0.10
2010,04,28,05,56,0.00
2010,04,28,05,57,0.20
2010,04,28,05,58,0.10
2010,04,28,05,59,0.00
2010,04,28,06,00,0.00
2010,04,28,06,01,0.00
2010,04,28,06,02,0.00
2010,04,28,06,03,0.00
2010,04,28,06,04,0.00
2010,04,28,06,05,1.00
2010,04,28,06,06,1.50
2010,04,28,06,07,0.60
2010,04,28,06,08,0.10
2010,04,28,06,09,0.70
2010,04,28,06,10,1.00
2010,04,28,06,11,3.40
2010,04,28,06,12,3.70
2010,04,28,06,13,3.80
2010,04,28,06,14,3.40
2010,04,28,06,15,3.30
2010,04,28,06,16,5.10
2010,04,28,06,17,5.70
2010,04,28,06,18,5.40
2010,04,28,06,19,7.10
2010,04,28,06,20,7.30
2010,04,28,06,21,5.10
2010,04,28,06,22,6.60
2010,04,28,06,23,4.90
2010,04,28,06,24,4.30
2010,04,28,06,25,3.70
2010,04,28,06,26,6.00
2010,04,28,06,27,8.00
2010,04,28,06,28,3.60
2010,04,28,06,29,5.60
2010,04,28,06,30,4.80
2010,04,28,06,31,5.30
2010,04,28,06,32,3.10
2010,04,28,06,33,4.20
2010,04,28,06,34,4.10
2010,04,28,06,35,5.30
2010,04,28,06,36,5.40
2010,04,28,06,37,5.30
2010,04,28,06,38,4.70
2010,04,28,06,39,4.40
2010,04,28,06,40,5.50
2010,04,28,06,41,5.30
2010,04,28,06,42,3.90
2010,04,28,06,43,7.60
2010,04,28,06,44,7.00
2010,04,28,06,45,6.70
2010,04,28,06,46,7.10
2010,04,28,06,47,5.30
2010,04,28,06,48,5.50
2010,04,28,06,49,7.00
2010,04,28,06,50,7.30
2010,04,28,06,51,7.30
2010,04,28,06,52,6.30
2010,04,28,06,53,5.40
2010,04,28,06,54,4.50
2010,04,28,06,55,4.10
2010,04,28,06,56,6.50
2010,04,28,06,57,2.90
2010,04,28,06,58,3.60
2010,04,28,06,59,2.00
2010,04,28,07,00,1.50
2010,04,28,07,01,3.00
2010,04,28,07,02,5.80
2010,04,28,07,03,2.00
2010,04,28,07,04,5.80
2010,04,28,07,05,0.80
2010,04,28,07,06,2.80
2010,04,28,07,07,3.40
2010,04,28,07,08,5.30
2010,04,28,07,09,4.30
2010,04,28,07,10,6.40
2010,04,28,07,11,2.50
2010,04,28,07,12,3.60
2010,04,28,07,13,3.50
2010,04,28,07,14,0.80
2010,04,28,07,15,3.70
2010,04,28,07,16,3.90
2010,04,28,07,17,1.60
2010,04,28,07,18,4.40
2010,04,28,07,19,4.10
2010,04,28,07,20,6.80
2010,04,28,07,21,5.70
2010,04,28,07,22,1.70
2010,04,28,07,23,2.50
2010,04,28,07,24,3.60
2010,04,28,07,25,1.60
2010,04,28,07,26,3.50
2010,04,28,07,27,3.40
2010,04,28,07,28,7.00
2010,04,28,07,29,8.40
2010,04,28,07,30,5.30
2010,04,28,07,31,8.70
2010,04,28,07,32,6.40
2010,04,28,07,33,14.90
2010,04,28,07,34,13.00
2010,04,28,07,35,12.50
2010,04,28,07,36,6.30
2010,04,28,07,37,9.20
2010,04,28,07,38,7.90
2010,04,28,07,39,9.80
2010,04,28,07,40,8.00
2010,04,28,07,41,14.70
2010,04,28,07,42,9.10
2010,04,28,07,43,8.70
2010,04,28,07,44,8.90
2010,04,28,07,45,9.90
2010,04,28,07,46,10.60
2010,04,28,07,47,9.40
2010,04,28,07,48,6.10
2010,04,28,07,49,8.50
2010,04,28,07,50,10.00
2010,04,28,07,51,7.50
2010,04,28,07,52,13.60
2010,04,28,07,53,13.10
2010,04,28,07,54,15.50
2010,04,28,07,55,13.00
2010,04,28,07,56,17.50
2010,04,28,07,57,15.50
2010,04,28,07,58,10.20
2010,04,28,07,59,11.50
2010,04,28,08,00,8.10
2010,04,28,08,01,14.00
2010,04,28,08,02,13.00
2010,04,28,08,03,15.60
2010,04,28,08,04,10.30
2010,04,28,08,05,5.80
2010,04,28,08,06,7.40
2010,04,28,08,07,9.60
2010,04,28,08,08,5.00
2010,04,28,08,09,3.80
2010,04,28,08,10,1.10
2010,04,28,08,11,4.10
2010,04,28,08,12,7.20
2010,04,28,08,13,7.50
2010,04,28,08,14,5.40
2010,04,28,08,15,7.60
2010,04,28,08,16,10.10
2010,04,28,08,17,15.40
2010,04,28,08,18,14.10
2010,04,28,08,19,15.80
2010,04,28,08,20,19.30
2010,04,28,08,21,15.50
2010,04,28,08,22,13.00
2010,04,28,08,23,13.00
2010,04,28,08,24,9.50
2010,04,28,08,25,14.80
2010,04,28,08,26,15.20
2010,04,28,08,27,14.30
2010,04,28,08,28,11.40
2010,04,28,08,29,10.90
2010,04,28,08,30,8.70
2010,04,28,08,31,8.00
2010,04,28,08,32,7.30
2010,04,28,08,33,4.70
2010,04,28,08,34,14.40
2010,04,28,08,35,17.40
2010,04,28,08,36,11.30
2010,04,28,08,37,11.90
2010,04,28,08,38,17.50
2010,04,28,08,39,13.00
2010,04,28,08,40,8.60
2010,04,28,08,41,12.00
2010,04,28,08,42,9.40
2010,04,28,08,43,16.60
2010,04,28,08,44,16.60
2010,04,28,08,45,15.80
2010,04,28,08,46,17.80
2010,04,28,08,47,19.40
2010,04,28,08,48,15.00
2010,04,28,08,49,13.70
2010,04,28,08,50,7.50
2010,04,28,08,51,11.60
2010,04,28,08,52,18.20
2010,04,28,08,53,10.70
2010,04,28,08,54,9.00
2010,04,28,08,55,9.40
2010,04,28,08,56,9.10
2010,04,28,08,57,10.30
2010,04,28,08,58,15.40
2010,04,28,08,59,6.30
2010,04,28,09,00,7.50
2010,04,28,09,01,9.30
2010,04,28,09,02,3.90
2010,04,28,09,03,3.30
2010,04,28,09,04,11.30
2010,04,28,09,05,15.20
2010,04,28,09,06,15.60
2010,04,28,09,07,16.20
2010,04,28,09,08,19.10
2010,04,28,09,09,13.70
2010,04,28,09,10,15.80
2010,04,28,09,11,6.80
2010,04,28,09,12,10.70
2010,04,28,09,13,16.90
2010,04,28,09,14,13.30
2010,04,28,09,15,17.40
2010,04,28,09,16,12.30
2010,04,28,09,17,12.00
2010,04,28,09,18,11.70
2010,04,28,09,19,18.90
2010,04,28,09,20,15.40
2010,04,28,09,21,15.00
2010,04,28,09,22,9.10
2010,04,28,09,23,15.70
2010,04,28,09,24,15.30
2010,04,28,09,25,18.30
2010,04,28,09,26,12.30
2010,04,28,09,27,9.60
2010,04,28,09,28,8.80
2010,04,28,09,29,5.20
2010,04,28,09,30,14.10
2010,04,28,09,31,15.70
2010,04,28,09,32,10.10
2010,04,28,09,33,9.10
2010,04,28,09,34,8.30
2010,04,28,09,35,16.70
2010,04,28,09,36,7.50
2010,04,28,09,37,9.90
2010,04,28,09,38,8.00
2010,04,28,09,39,5.30
2010,04,28,09,40,10.00
2010,04,28,09,41,10.00
2010,04,28,09,42,7.20
2010,04,28,09,43,17.20
2010,04,28,09,44,15.00
2010,04,28,09,45,15.10
2010,04,28,09,46,15.20
2010,04,28,09,47,17.70
2010,04,28,09,48,11.10
2010,04,28,09,49,9.10
2010,04,28,09,50,3.70
2010,04,28,09,51,10.20
2010,04,28,09,52,18.60
2010,04,28,09,53,16.80
2010,04,28,09,54,13.80
2010,04,28,09,55,13.50
2010,04,28,09,56,10.50
2010,04,28,09,57,18.00
2010,04,28,09,58,16.00
2010,04,28,09,59,15.70
2010,04,28,10,00,12.40
2010,04,28,10,01,12.70
2010,04,28,10,02,7.40
2010,04,28,10,03,14.20
2010,04,28,10,04,14.10
2010,04,28,10,05,13.70
2010,04,28,10,06,19.40
2010,04,28,10,07,19.40
2010,04,28,10,08,15.10
2010,04,28,10,09,12.60
2010,04,28,10,10,11.20
2010,04,28,10,11,18.40
2010,04,28,10,12,14.50
2010,04,28,10,13,15.80
2010,04,28,10,14,14.50
2010,04,28,10,15,9.80
2010,04,28,10,16,13.10
2010,04,28,10,17,15.90
2010,04,28,10,18,19.50
2010,04,28,10,19,14.20
2010,04,28,10,20,13.50
2010,04,28,10,21,11.20
2010,04,28,10,22,16.40
2010,04,28,10,23,9.90
2010,04,28,10,24,14.00
2010,04,28,10,25,13.80
2010,04,28,10,26,12.10
2010,04,28,10,27,16.10
2010,04,28,10,28,20.70
2010,04,28,10,29,18.60
2010,04,28,10,30,16.40
2010,04,28,10,31,12.40
2010,04,28,10,32,12.40
2010,04,28,10,33,12.80
2010,04,28,10,34,18.90
2010,04,28,10,35,18.50
2010,04,28,10,36,14.30
2010,04,28,10,37,20.60
2010,04,28,10,38,20.80
2010,04,28,10,39,21.50
2010,04,28,10,40,16.90
2010,04,28,10,41,15.90
2010,04,28,10,42,10.40
2010,04,28,10,43,9.60
2010,04,28,10,44,9.90
2010,04,28,10,45,23.90
2010,04,28,10,46,20.10
2010,04,28,10,47,13.60
2010,04,28,10,48,16.80
2010,04,28,10,49,8.40
2010,04,28,10,50,8.10
2010,04,28,10,51,15.60
2010,04,28,10,52,10.00
2010,04,28,10,53,11.80
2010,04,28,10,54,15.50
2010,04,28,10,55,10.10
2010,04,28,10,56,11.50
2010,04,28,10,57,10.60
2010,04,28,10,58,12.60
2010,04,28,10,59,12.10
2010,04,28,11,00,7.40
2010,04,28,11,01,5.70
2010,04,28,11,02,0.60
2010,04,28,11,03,2.30
2010,04,28,11,04,3.60
2010,04,28,11,05,2.70
2010,04,28,11,06,4.60
2010,04,28,11,07,8.70
2010,04,28,11,08,3.10
2010,04,28,11,09,3.20
2010,04,28,11,10,10.50
2010,04,28,11,11,1.60
2010,04,28,11,12,5.00
2010,04,28,11,13,11.70
2010,04,28,11,14,9.40
2010,04,28,11,15,5.30
2010,04,28,11,16,13.50
2010,04,28,11,17,15.70
2010,04,28,11,18,12.80
2010,04,28,11,19,11.90
2010,04,28,11,20,17.10
2010,04,28,11,21,6.70
2010,04,28,11,22,6.40
2010,04,28,11,23,6.40
2010,04,28,11,24,11.30
2010,04,28,11,25,6.40
2010,04,28,11,26,4.90
2010,04,28,11,27,9.80
2010,04,28,11,28,12.60
2010,04,28,11,29,6.00
2010,04,28,11,30,10.00
2010,04,28,11,31,6.10
2010,04,28,11,32,8.60
2010,04,28,11,33,11.60
2010,04,28,11,34,11.90
2010,04,28,11,35,7.90
2010,04,28,11,36,9.00
2010,04,28,11,37,8.00
2010,04,28,11,38,6.10
2010,04,28,11,39,11.80
2010,04,28,11,40,13.00
2010,04,28,11,41,15.30
2010,04,28,11,42,7.10
2010,04,28,11,43,12.30
2010,04,28,11,44,20.50
2010,04,28,11,45,20.50
2010,04,28,11,46,13.30
2010,04,28,11,47,15.00
2010,04,28,11,48,16.50
2010,04,28,11,49,17.30
2010,04,28,11,50,15.90
2010,04,28,11,51,11.20
2010,04,28,11,52,8.40
2010,04,28,11,53,3.70
2010,04,28,11,54,0.70
2010,04,28,11,55,6.90
2010,04,28,11,56,16.40
2010,04,28,11,57,13.10
2010,04,28,11,58,17.40
2010,04,28,11,59,21.00
2010,04,28,12,00,11.10
2010,04,28,12,01,11.40
2010,04,28,12,02,12.30
2010,04,28,12,03,7.20
2010,04,28,12,04,10.80
2010,04,28,12,05,17.90
2010,04,28,12,06,17.40
2010,04,28,12,07,13.60
2010,04,28,12,08,2.40
2010,04,28,12,09,9.30
2010,04,28,12,10,13.20
2010,04,28,12,11,13.90
2010,04,28,12,12,18.20
2010,04,28,12,13,13.60
2010,04,28,12,14,9.50
2010,04,28,12,15,5.80
2010,04,28,12,16,8.90
2010,04,28,12,17,8.70
2010,04,28,12,18,13.00
2010,04,28,12,19,19.90
2010,04,28,12,20,18.30
2010,04,28,12,21,10.40
2010,04,28,12,22,5.70
2010,04,28,12,23,9.00
2010,04,28,12,24,8.90
2010,04,28,12,25,21.50
2010,04,28,12,26,15.30
2010,04,28,12,27,16.50
2010,04,28,12,28,13.50
2010,04,28,12,29,16.90
2010,04,28,12,30,11.10
2010,04,28,12,31,11.70
2010,04,28,12,32,15.00
2010,04,28,12,33,13.20
2010,04,28,12,34,14.70
2010,04,28,12,35,11.30
2010,04,28,12,36,16.20
2010,04,28,12,37,17.40
2010,04,28,12,38,14.00
2010,04,28,12,39,15.20
2010,04,28,12,40,22.50
2010,04,28,12,41,14.20
2010,04,28,12,42,15.20
2010,04,28,12,43,13.10
2010,04,28,12,44,10.00
2010,04,28,12,45,5.60
2010,04,28,12,46,9.40
2010,04,28,12,47,7.50
2010,04,28,12,48,19.60
2010,04,28,12,49,16.40
2010,04,28,12,50,14.90
2010,04,28,12,51,15.90
2010,04,28,12,52,16.60
2010,04,28,12,53,15.90
2010,04,28,12,54,24.10
2010,04,28,12,55,20.60
2010,04,28,12,56,15.80
2010,04,28,12,57,18.90
2010,04,28,12,58,16.60
2010,04,28,12,59,12.00
2010,04,28,13,00,15.40
2010,04,28,13,01,19.50
2010,04,28,13,02,21.50
2010,04,28,13,03,11.50
2010,04,28,13,04,12.60
2010,04,28,13,05,15.30
2010,04,28,13,06,13.20
2010,04,28,13,07,15.90
2010,04,28,13,08,13.10
2010,04,28,13,09,13.90
2010,04,28,13,10,5.60
2010,04,28,13,11,9.70
2010,04,28,13,12,10.10
2010,04,28,13,13,12.60
2010,04,28,13,14,15.70
2010,04,28,13,15,18.20
2010,04,28,13,16,14.60
2010,04,28,13,17,9.60
2010,04,28,13,18,3.60
2010,04,28,13,19,3.20
2010,04,28,13,20,7.00
2010,04,28,13,21,17.30
2010,04,28,13,22,20.50
2010,04,28,13,23,19.00
2010,04,28,13,24,12.40
2010,04,28,13,25,8.10
2010,04,28,13,26,4.80
2010,04,28,13,27,5.30
2010,04,28,13,28,9.80
2010,04,28,13,29,6.90
2010,04,28,13,30,6.30
2010,04,28,13,31,4.90
2010,04,28,13,32,7.00
2010,04,28,13,33,6.70
2010,04,28,13,34,5.70
2010,04,28,13,35,2.60
2010,04,28,13,36,3.70
2010,04,28,13,37,5.70
2010,04,28,13,38,4.50
2010,04,28,13,39,4.00
2010,04,28,13,40,1.30
2010,04,28,13,41,3.10
2010,04,28,13,42,2.00
2010,04,28,13,43,1.80
2010,04,28,13,44,2.30
2010,04,28,13,45,5.60
2010,04,28,13,46,2.30
2010,04,28,13,47,1.40
2010,04,28,13,48,1.00
2010,04,28,13,49,0.60
2010,04,28,13,50,0.20
2010,04,28,13,51,3.00
2010,04,28,13,52,1.90
2010,04,28,13,53,3.80
2010,04,28,13,54,3.30
2010,04,28,13,55,5.10
2010,04,28,13,56,7.40
2010,04,28,13,57,13.10
2010,04,28,13,58,6.90
2010,04,28,13,59,3.60
2010,04,28,14,00,6.30
2010,04,28,14,01,4.70
2010,04,28,14,02,4.20
2010,04,28,14,03,4.10
2010,04,28,14,04,1.00
2010,04,28,14,05,3.20
2010,04,28,14,06,4.00
2010,04,28,14,07,2.60
2010,04,28,14,08,5.10
2010,04,28,14,09,1.60
2010,04,28,14,10,0.90
2010,04,28,14,11,2.70
2010,04,28,14,12,5.30
2010,04,28,14,13,2.50
2010,04,28,14,14,1.00
2010,04,28,14,15,2.80
2010,04,28,14,16,0.40
2010,04,28,14,17,3.90
2010,04,28,14,18,1.30
2010,04,28,14,19,4.10
2010,04,28,14,20,3.40
2010,04,28,14,21,4.40
2010,04,28,14,22,4.00
2010,04,28,14,23,10.00
2010,04,28,14,24,4.60
2010,04,28,14,25,7.60
2010,04,28,14,26,5.10
2010,04,28,14,27,10.70
2010,04,28,14,28,12.10
2010,04,28,14,29,8.90
2010,04,28,14,30,10.40
2010,04,28,14,31,6.30
2010,04,28,14,32,3.60
2010,04,28,14,33,8.40
2010,04,28,14,34,8.30
2010,04,28,14,35,10.50
2010,04,28,14,36,17.90
2010,04,28,14,37,13.60
2010,04,28,14,38,11.60
2010,04,28,14,39,0.60
2010,04,28,14,40,5.50
2010,04,28,14,41,9.70
2010,04,28,14,42,7.90
2010,04,28,14,43,17.20
2010,04,28,14,44,14.80
2010,04,28,14,45,14.60
2010,04,28,14,46,18.00
2010,04,28,14,47,18.70
2010,04,28,14,48,21.60
2010,04,28,14,49,21.50
2010,04,28,14,50,14.60
2010,04,28,14,51,19.20
2010,04,28,14,52,22.50
2010,04,28,14,53,22.10
2010,04,28,14,54,25.30
2010,04,28,14,55,20.40
2010,04,28,14,56,17.80
2010,04,28,14,57,18.40
2010,04,28,14,58,19.30
2010,04,28,14,59,22.70
2010,04,28,15,00,22.80
2010,04,28,15,01,14.80
2010,04,28,15,02,20.50
2010,04,28,15,03,25.20
2010,04,28,15,04,17.90
2010,04,28,15,05,19.90
2010,04,28,15,06,19.30
2010,04,28,15,07,25.90
2010,04,28,15,08,20.60
2010,04,28,15,09,16.50
2010,04,28,15,10,21.80
2010,04,28,15,11,20.70
2010,04,28,15,12,18.10
2010,04,28,15,13,15.60
2010,04,28,15,14,17.00
2010,04,28,15,15,19.40
2010,04,28,15,16,24.80
2010,04,28,15,17,27.50
2010,04,28,15,18,26.10
2010,04,28,15,19,17.70
2010,04,28,15,20,22.00
2010,04,28,15,21,24.10
2010,04,28,15,22,12.20
2010,04,28,15,23,12.40
2010,04,28,15,24,23.50
2010,04,28,15,25,28.50
2010,04,28,15,26,23.30
2010,04,28,15,27,20.80
2010,04,28,15,28,20.90
2010,04,28,15,29,21.60
2010,04,28,15,30,19.80
2010,04,28,15,31,20.90
2010,04,28,15,32,27.50
2010,04,28,15,33,20.60
2010,04,28,15,34,21.80
2010,04,28,15,35,19.10
2010,04,28,15,36,18.10
2010,04,28,15,37,5.30
2010,04,28,15,38,1.40
2010,04,28,15,39,6.80
2010,04,28,15,40,1.30
2010,04,28,15,41,5.50
2010,04,28,15,42,1.30
2010,04,28,15,43,2.20
2010,04,28,15,44,2.30
2010,04,28,15,45,4.00
2010,04,28,15,46,0.10
2010,04,28,15,47,1.40
2010,04,28,15,48,2.50
2010,04,28,15,49,2.60
2010,04,28,15,50,0.20
2010,04,28,15,51,1.10
2010,04,28,15,52,1.00
2010,04,28,15,53,3.30
2010,04,28,15,54,0.90
2010,04,28,15,55,3.80
2010,04,28,15,56,9.50
2010,04,28,15,57,4.80
2010,04,28,15,58,5.80
2010,04,28,15,59,5.60
2010,04,28,16,00,5.40
2010,04,28,16,01,5.10
2010,04,28,16,02,2.40
2010,04,28,16,03,0.50
2010,04,28,16,04,1.00
2010,04,28,16,05,6.00
2010,04,28,16,06,3.80
2010,04,28,16,07,0.30
2010,04,28,16,08,0.70
2010,04,28,16,09,0.90
2010,04,28,16,10,0.10
2010,04,28,16,11,0.60
2010,04,28,16,12,3.10
2010,04,28,16,13,0.70
2010,04,28,16,14,1.20
2010,04,28,16,15,0.30
2010,04,28,16,16,0.70
2010,04,28,16,17,0.10
2010,04,28,16,18,0.20
2010,04,28,16,19,1.60
2010,04,28,16,20,1.90
2010,04,28,16,21,1.40
2010,04,28,16,22,4.00
2010,04,28,16,23,0.20
2010,04,28,16,24,0.90
2010,04,28,16,25,1.40
2010,04,28,16,26,0.00
2010,04,28,16,27,3.40
2010,04,28,16,28,0.90
2010,04,28,16,29,1.90
2010,04,28,16,30,2.70
2010,04,28,16,31,4.90
2010,04,28,16,32,2.70
2010,04,28,16,33,2.60
2010,04,28,16,34,2.70
2010,04,28,16,35,0.10
2010,04,28,16,36,1.50
2010,04,28,16,37,1.00
2010,04,28,16,38,2.40
2010,04,28,16,39,0.10
2010,04,28,16,40,0.00
2010,04,28,16,41,0.40
2010,04,28,16,42,0.00
2010,04,28,16,43,0.00
2010,04,28,16,44,1.50
2010,04,28,16,45,3.40
2010,04,28,16,46,1.40
2010,04,28,16,47,5.10
2010,04,28,16,48,5.40
2010,04,28,16,49,3.70
2010,04,28,16,50,0.50
2010,04,28,16,51,1.40
2010,04,28,16,52,1.30
2010,04,28,16,53,2.90
2010,04,28,16,54,10.90
2010,04,28,16,55,13.80
2010,04,28,16,56,22.00
2010,04,28,16,57,18.50
2010,04,28,16,58,14.20
2010,04,28,16,59,20.20
2010,04,28,17,00,20.00
2010,04,28,17,01,17.80
2010,04,28,17,02,24.00
2010,04,28,17,03,23.70
2010,04,28,17,04,23.90
2010,04,28,17,05,19.80
2010,04,28,17,06,21.20
2010,04,28,17,07,19.60
2010,04,28,17,08,12.90
2010,04,28,17,09,19.30
2010,04,28,17,10,8.90
2010,04,28,17,11,22.80
2010,04,28,17,12,15.90
2010,04,28,17,13,21.50
2010,04,28,17,14,19.10
2010,04,28,17,15,23.30
2010,04,28,17,16,23.30
2010,04,28,17,17,22.30
2010,04,28,17,18,21.10
2010,04,28,17,19,23.30
2010,04,28,17,20,16.30
2010,04,28,17,21,17.60
2010,04,28,17,22,13.60
2010,04,28,17,23,18.50
2010,04,28,17,24,22.00
2010,04,28,17,25,13.70
2010,04,28,17,26,18.50
2010,04,28,17,27,19.00
2010,04,28,17,28,15.00
2010,04,28,17,29,14.10
2010,04,28,17,30,12.70
2010,04,28,17,31,17.60
2010,04,28,17,32,15.90
2010,04,28,17,33,13.50
2010,04,28,17,34,22.60
2010,04,28,17,35,18.50
2010,04,28,17,36,29.10
2010,04,28,17,37,27.30
2010,04,28,17,38,24.60
2010,04,28,17,39,17.00
2010,04,28,17,40,18.20
2010,04,28,17,41,12.20
2010,04,28,17,42,17.80
2010,04,28,17,43,16.60
2010,04,28,17,44,12.00
2010,04,28,17,45,13.00
2010,04,28,17,46,15.80
2010,04,28,17,47,13.00
2010,04,28,17,48,13.00
2010,04,28,17,49,12.50